August 11, 2022

Time Code Weather Temp. Visibility Ceiling Wind METAR/SPECI
18:20
L
30 °C 0 m - 080° 080° 5 kt METAR ETWM 111620Z AUTO 08005KT //// // ////// 30/07 Q1020 ///
17:20
L
30 °C 0 m - 050° 050° 8 kt METAR ETWM 111520Z AUTO 05008KT //// // ////// 30/06 Q1021 ///
16:20
L
31 °C 0 m - 060° 060° 7 kt METAR ETWM 111420Z AUTO 06007KT //// // ////// 31/07 Q1021 ///
15:20
L
30 °C 0 m - 080° 080° 5 kt METAR ETWM 111320Z AUTO 08005KT //// // ////// 30/06 Q1022 ///
14:20
V
30 °C 10 km+ - 070° 070° 6 kt METAR ETWM 111220Z 07006KT 9999 FEW350 30/07 Q1022 BLU+
13:20
V
29 °C 10 km+ - 050° 050° 5 kt METAR ETWM 111120Z 05005KT 9999 FEW350 29/08 Q1023 BLU+
12:20
V
28 °C 10 km+ - 070° 070° 8 kt METAR ETWM 111020Z 07008KT 9999 FEW320 28/09 Q1023 BLU+
11:20
V
28 °C 10 km+ - 070° 070° 6 kt METAR ETWM 110920Z 07006KT 9999 FEW320 28/09 Q1023 BLU+
10:20
V
25 °C 10 km+ - 060° 060° 4 kt METAR ETWM 110820Z 06004KT 9999 FEW320 25/12 Q1023 BLU+
09:20
V
22 °C 10 km+ - 070° 070° 4 kt METAR ETWM 110720Z 07004KT 9999 FEW320 22/13 Q1024 BLU+
08:20
V
18 °C 10 km+ - 060° 060° 3 kt METAR ETWM 110620Z 06003KT 9999 FEW230 18/13 Q1024 BLU+
07:20
V
14 °C 10 km+ - 030° 030° 2 kt METAR ETWM 110520Z 03002KT 9999 FEW230 14/14 Q1024 BLU+
06:20
V
13 °C 10 km+ - 020° 020° 2 kt METAR ETWM 110420Z 02002KT 9999 BCFG FEW230 13/12 Q1023 BLU+
05:20
L
13 °C 0 m - 030° 030° 1 kt METAR ETWM 110320Z AUTO 03001KT //// // ////// 13/13 Q1024 ///
04:20
L
13 °C 0 m - 010° 010° 2 kt METAR ETWM 110220Z AUTO 01002KT //// // ////// 13/13 Q1024 ///
03:20
L
14 °C 0 m - 020° 020° 2 kt METAR ETWM 110120Z AUTO 02002KT //// // ////// 14/13 Q1024 ///
02:20
L
15 °C 0 m - 020° 020° 3 kt METAR ETWM 110020Z AUTO 02003KT //// // ////// 15/14 Q1024 ///
01:20
L
15 °C 0 m - 010° 010° 3 kt METAR ETWM 102320Z AUTO 01003KT //// // ////// 15/14 Q1024 ///
00:20
L
17 °C 0 m - 020° 020° 3 kt METAR ETWM 102220Z AUTO 02003KT //// // ////// 17/14 Q1024 ///

August 10, 2022

Time Code Weather Temp. Visibility Ceiling Wind METAR/SPECI
23:20
L
18 °C 0 m - 010° 010° 3 kt METAR ETWM 102120Z AUTO 01003KT //// // ////// 18/14 Q1024 ///
22:20
L
21 °C 0 m - 010° 010° 4 kt METAR ETWM 102020Z AUTO 01004KT //// // ////// 21/13 Q1024 ///
21:20
L
23 °C 0 m - 020° 020° 4 kt METAR ETWM 101920Z AUTO 02004KT //// // ////// 23/11 Q1024 ///
20:20
L
26 °C 0 m - 050° 050° 4 kt METAR ETWM 101820Z AUTO 05004KT //// // ////// 26/10 Q1024 ///
19:20
L
27 °C 0 m - 070° 070° 6 kt METAR ETWM 101720Z AUTO 07006KT //// // ////// 27/09 Q1024 ///
18:20
L
28 °C 0 m - 070° 070° 7 kt METAR ETWM 101620Z AUTO 07007KT //// // ////// 28/09 Q1024 ///
17:20
L
28 °C 0 m - 050° 050° 6 kt METAR ETWM 101520Z AUTO 05006KT //// // ////// 28/10 Q1024 ///
16:20
L
28 °C 0 m - 040° 040° 8 kt METAR ETWM 101420Z AUTO 04008KT //// // ////// 28/09 Q1025 ///
15:20
L
28 °C 0 m - 050° 050° 6 kt METAR ETWM 101320Z AUTO 05006KT //// // ////// 28/09 Q1025 ///
14:20
L
27 °C 0 m - 050° 050° 7 kt METAR ETWM 101220Z AUTO 05007KT //// // ////// 27/10 Q1026 ///
13:20
V
27 °C 10 km+ - 060° 060° 6 kt METAR ETWM 101120Z 06006KT 9999 FEW280 27/11 Q1026 BLU+
12:20
V
26 °C 10 km+ - 020° 020° 5 kt METAR ETWM 101020Z 02005KT 9999 FEW055 SCT390 26/11 Q1027 BLU+
11:20
V
25 °C 10 km+ - 070° 070° 6 kt METAR ETWM 100920Z 07006KT 9999 FEW280 SCT390 25/12 Q1027 BLU+
10:20
V
22 °C 10 km+ - 060° 060° 5 kt METAR ETWM 100820Z 06005KT 9999 FEW280 SCT390 22/13 Q1027 BLU+
09:20
V
19 °C 10 km+ - 060° 060° 5 kt METAR ETWM 100720Z 06005KT 9999 FEW280 SCT380 19/14 Q1027 BLU+
08:20
V
16 °C 10 km+ - 040° 040° 3 kt METAR ETWM 100620Z 04003KT 9999 FEW280 SCT300 16/14 Q1027 BLU+
07:20
V
12 °C 10 km+ - 030° 030° 2 kt METAR ETWM 100520Z 03002KT 9999 BCFG FEW300 SCT380 12/12 Q1027 BLU+
06:20
L
11 °C 50 m - 020° 020° 2 kt METAR ETWM 100420Z 02002KT 0050 FG SCT300 11/11 Q1027 RED
05:20
L
12 °C 0 m - 010° 010° 3 kt METAR ETWM 100320Z AUTO 01003KT //// // ////// 12/12 Q1027 ///
04:20
L
13 °C 0 m - 020° 020° 4 kt METAR ETWM 100220Z AUTO 02004KT //// // ////// 13/13 Q1027 ///
03:20
L
13 °C 0 m - 010° 010° 4 kt METAR ETWM 100120Z AUTO 01004KT //// // ////// 13/13 Q1028 ///
02:20
L
13 °C 0 m - 040° 040° 2 kt METAR ETWM 100020Z AUTO 04002KT //// // ////// 13/12 Q1028 ///
01:20
L
14 °C 0 m - 020° 020° 4 kt METAR ETWM 092320Z AUTO 02004KT //// // ////// 14/11 Q1028 ///
00:20
L
15 °C 0 m - 010° 010° 4 kt METAR ETWM 092220Z AUTO 01004KT //// // ////// 15/11 Q1028 ///

August 9, 2022

Time Code Weather Temp. Visibility Ceiling Wind METAR/SPECI
23:20
L
16 °C 0 m - 020° 020° 6 kt METAR ETWM 092120Z AUTO 02006KT //// // ////// 16/11 Q1028 ///
22:20
L
18 °C 0 m - 020° 020° 6 kt METAR ETWM 092020Z AUTO 02006KT //// // ////// 18/11 Q1028 ///
21:20
L
20 °C 0 m - 010° 010° 5 kt METAR ETWM 091920Z AUTO 01005KT //// // ////// 20/11 Q1028 ///
20:20
L
22 °C 0 m - 010° 010° 10 kt METAR ETWM 091820Z AUTO 01010KT //// // ////// 22/10 Q1027 ///
19:20
L
24 °C 0 m - 360° 360° 10 kt METAR ETWM 091720Z AUTO 36010KT //// // ////// 24/10 Q1027 ///
18:20
L
25 °C 0 m - 010° 010° 8 kt METAR ETWM 091620Z AUTO 01008KT //// // ////// 25/10 Q1027 ///
17:20
L
25 °C 0 m - 360° 360° 9 kt METAR ETWM 091520Z AUTO 36009KT //// // ////// 25/10 Q1027 ///
Older data

We and third parties follow your internet behavior on our website with cookies. If you continue, we assume you agree with our cookie policy. Learn more